Погода в Гирине

Китай     43°52′13″N   126°32′47″E
темп.,
°C
ветер,
м/с
пор.,
м/с
влажн.,
%
обл.,
%
осадки,
мм/ч
давл.,
гПа
погр.,
м
16 мая, вс
вс1623:00+7ююв2265100 0.0 101212
02:00+6ююв116321 0.0 101211
05:00+7ююв1163100 0.0 101115
08:00+14юз0045100 0.0 1010293
11:00+19с2335100 0.0 1008918
14:00+21ссв1330100 0.0 10062096
17:00+20ссз014182 0.0 1005189
20:00+14ю2252100 0.0 100614
17 мая, пн
пн1723:00+12ююз3254100 0.0 100726
02:00+10ю225766 0.0 100718
05:00+9ю22600 0.0 100728
08:00+18юз24420 0.0 1007430
11:00+22зюз56300 0.0 10061449
14:00+24зюз46240 0.0 10052624
17:00+23ююз23400 0.0 1004245
20:00+15ю33450 0.0 100629
18 мая, вт
вт1823:00+13ю35430 0.0 100670
02:00+12ю34440 0.0 100548
05:00+12ююв46510 0.0 100588
08:00+22ююз614350 0.0 1004929
11:00+25юз8123045 0.0 10031246
14:00+27юз812315 0.0 10011967
17:00+25ююз613383 0.0 1001559
20:00+21зюз4124015 0.0 1004310
19 мая, ср
ср1923:00+17ю4955100 0.0 1005162
02:00+14ююв2265100 0.0 100526
05:00+12ююв33695 0.0 100556
08:00+21юз510400 0.0 10061149
11:00+26юз69355 0.0 10051728
14:00+28зюз710346 0.0 10042143
17:00+25юз7124035 0.0 1004683
20:00+22ююз61539100 0.0 1006566
20 мая, чт
чт2023:00+21юз61636100 0.0 1007674
02:00+15ююв357513 0.0 100894
05:00+14ююв337442 0.0 100957
08:00+22ююз51137100 0.0 1008833
11:00+26юз682852 0.0 10071465
14:00+27юз582640 0.0 10052118
17:00+25зюз36406 0.0 1004316
20:00+18ю22460 0.0 100513